Liberal Mid-America Regional Airport
KLBL : rendu visible

Aérodrome :











RETROUVEZ-NOUS SUR...

 
LOGIN :

S'inscrire | Disclaimer

   EN    FR    IT 

 









Légende :    VFR   VFR Marginal   IFR   IFR Intensif   IFR Très Intensif
Visi : 
Plafond : 
>= 8 km
>= 3000ft
5 à 8 km
1000 à 3000 ft
1500m à 5 km
500 à 1000 ft
800 à 1500m
200 à 500 ft
< 800m
< 200 ft
Symboles :   Orages  Brouillard  Fortes neiges  Fortes précipitations  Vent > 20 kt






- Altitude de l'aérodrome : 2885 ft
- Code IATA : LBL


KLBL - Liberal Mid-America Regional

DERNIER METAR :
  • 010356Z AUTO 16015KT 10SM CLR 11/07 A2992 RMK AO2 SLP124 T01110067

METARs EXPIRÉS :
  • 010256Z AUTO 15015KT 10SM CLR 12/06 A2992 RMK AO2 SLP124 T01220061 57002
  • 010156Z AUTO 15012KT 10SM CLR 13/06 A2992 RMK AO2 SLP125 T01280061

TAF KLBL
Valide du 01 à 00h jusqu'au 02 à 00h UTC


312335Z 0100/0124 18012KT P6SM FEW250
FM011300 19015G25KT P6SM BKN200



MET'MAP, la Météo Aéronautique d'un coup d'oeil ! - Copyright ORBIFLY Décembre 2007 - Disclaimer

ORBIFLY MET'MAP TEAM :

Programmation & Développement : Alexandra Zaïnal
Sur une idée originale de : Baudouin d'Aumeries
Assistance à la programmation : Marc-Olivier Méhu
Soutien technique & logistique : Manuel Goepfert

Contact : metmap@orbifly.com




SOURCES & CREDITS :

   NOAA       Earth
Advisory